Pasco, WA
on Tuesday, December 18, 2012

Tuesday
Previous Day Next Day
Daily Summary
 ActualAverageRecord
Temperature
Mean Temperature °F 32°F  
Max Temperature 43°F 39°F 55°F (1999)
Min Temperature 31°F 26°F 5°F (2005)
Degree Days
Heating Degree Days 28 33  
Month to date heating degree days 423 561  
Since 1 July heating degree days 1520 1790  
Cooling Degree Days 0 0  
Month to date cooling degree days 0 0  
Year to date cooling degree days 788 710  
Moisture
Dew Point 26°F   
Average Humidity 64    
Maximum Humidity 75    
Minimum Humidity 53    
Precipitation
Precipitation 0.00 in 0.05 in 0.35 in (1960)
Month to date precipitation 0.53 0.59  
Year to date precipitation 9.09 8.21  
Snow
Snow 0.00 in in in ()
Snow Depth 0.00 in   
Wind
Wind Speed 13 mph   
Max Wind Speed 26 mph   
Max Gust Speed 30 mph   
Visibility 10 miles   
Events     

Key: T is trace of precipitation, MM is missing value
Source: NWS Daily Summary
Time(PST)TemperatureDew PointHumidity Pressure Visibility Wind DirectionWind SpeedGust SpeedPrecipitationEvents Conditions
12:53 AM 35.1°F 27.0°F 72% 29.93 in 10.0 miles SW 13.8 mph - N/A   Clear
1:53 AM 36.0°F 26.1°F 67% 29.94 in 10.0 miles SW 15.0 mph - N/A   Clear
2:53 AM 35.1°F 25.0°F 67% 29.94 in 10.0 miles SSW 15.0 mph - N/A   Clear
3:53 AM 35.1°F 25.0°F 67% 29.94 in 10.0 miles SW 12.7 mph - N/A   Clear
4:53 AM 33.1°F 25.0°F 72% 29.94 in 10.0 miles SW 9.2 mph - N/A   Clear
5:53 AM 34.0°F 26.1°F 73% 29.96 in 10.0 miles SW 11.5 mph - N/A   Clear
6:53 AM 33.1°F 26.1°F 75% 29.96 in 10.0 miles SSW 9.2 mph - N/A   Clear
7:53 AM 35.1°F 25.0°F 67% 29.96 in 10.0 miles SSW 3.5 mph - N/A   Clear
8:53 AM 36.0°F 26.1°F 67% 29.98 in 10.0 miles South 8.1 mph - N/A   Mostly Cloudy
9:53 AM 37.0°F 25.0°F 62% 29.98 in 10.0 miles SSW 9.2 mph - N/A   Mostly Cloudy
10:53 AM 37.9°F 25.0°F 60% 29.97 in 10.0 miles SSW 19.6 mph - N/A   Scattered Clouds
11:53 AM 39.9°F 24.1°F 53% 29.96 in 10.0 miles SW 16.1 mph 23.0 mph N/A   Partly Cloudy
12:53 PM 42.1°F 26.1°F 53% 29.95 in 10.0 miles WSW 16.1 mph 23.0 mph N/A   Clear
1:53 PM 42.1°F 27.0°F 55% 29.95 in 10.0 miles WSW 16.1 mph 20.7 mph N/A   Scattered Clouds
2:53 PM 42.1°F 27.0°F 55% 29.96 in 10.0 miles SW 16.1 mph 24.2 mph N/A   Clear
3:53 PM 39.0°F 27.0°F 62% 29.96 in 10.0 miles WSW 12.7 mph - N/A   Clear
4:53 PM 37.0°F 27.0°F 67% 29.98 in 10.0 miles SW 10.4 mph - N/A   Clear
5:53 PM 36.0°F 25.0°F 64% 29.99 in 10.0 miles WSW 9.2 mph - N/A   Clear
6:53 PM 34.0°F 26.1°F 73% 30.00 in 10.0 miles WSW 9.2 mph - N/A   Clear
7:53 PM 34.0°F 26.1°F 73% 30.01 in 10.0 miles WSW 10.4 mph - N/A   Clear
8:53 PM 34.0°F 26.1°F 73% 30.03 in 10.0 miles SW 13.8 mph - N/A   Clear
9:53 PM 33.1°F 26.1°F 75% 30.04 in 10.0 miles SW 15.0 mph - N/A   Clear
10:53 PM 33.1°F 27.0°F 78% 30.05 in 10.0 miles WSW 12.7 mph - N/A   Clear
11:53 PM 32.0°F 26.1°F 79% 30.05 in 10.0 miles SW 9.2 mph - N/A   Clear
Moon Phase
Dec. 18 Dec. 20 Dec. 28 Jan. 04 Jan. 11
Sunrise:07:35 AM (PST) Moon Rise:10:58 AM (PST)12/18
Sunset:04:11 PM (PST) Moon Set:11:03 PM (PST)12/18

Copyright © 2014 The Weather Underground, Inc.